Tracking 20621 objects as of 1-Apr-2020
HD Live streaming from Space Station
objects crossing your sky now

ARIANE 5 R/B

Track ARIANE 5 R/B now!


NORAD ID: 27946
Int'l Code: 2003-043B
Perigee: 633.8 km
Apogee: 36,046.0 km
Inclination: 7.9 °
Period: 644.3 minutes
Semi major axis: 24710 km
RCS: 26.85 m2 (large)
Launch date: September 27, 2003
Source: France (FR)
Launch site: FRENCH GUIANA (FRGUI)

Note: This is a ROCKET BODY
aabbcc
Your satellite tracking list
Your tracking list is empty




NASA's NSSDC Master Catalog

Two Line Element Set (TLE):
1 27946U 03043B   20090.23848374 -.00000254 +00000-0 -15031-2 0  9993
2 27946 007.8776 089.8225 7165299 251.2167 024.0668 02.23496309134835
Source of the keplerian elements: AFSPC